DELTA 1 DEB, 10874

Orbit data source: Space-Track

DELTA 1 DEB, 10874 is space debris in SSO originally from a launch on Thu, 29 Jul 1976 UTC launched from the Air Force Western Test Range (AFWTR). Debris objects in space refer to the collection of defunct objects orbiting the Earth. Examples of debris include non-operational satellites, rocket bodies, and fragments generated from explosions, collisions, or faulty payload assembly.

Loading next visibility...
Identifier
10874, 1976-077DC
Orbit
SSO
Country
Flag of USUS
Related business
Manufacturer
Unknown
Mission
Spacecraft
Bus & Motor
Unknown
Mass
Unknown
Launch date (UTC)
1976-07-29 (49 years ago)
Launch vehicle
Unknown
Launch site
Air Force Western Test Range (AFWTR)
Object type
Payload
Rocket body
Debris
Shape & HBR
Unknown shape, 0.1 m
Radar Cross Section
Small (<0.1 m²)

Expand to show TLE details & history
Last TLE update: 16 hours ago

TLE from 16 hours ago
0 DELTA 1 DEB
1 10874U 76077DC  25292.32679050  .00000516  00000-0  14887-2 0  9991
2 10874 102.0549  60.0647 0057097  75.1235 342.1690 13.16260136305773
Epoch: 2025-10-19T07:50Z
TLE epoch observation values (Epoch: 2025-10-19T07:50:34.699Z)
Latitude
55.28556°
Longitude
-103.48436°
Altitude
1,166.844 km
Speed
7.295 km/s
True Right ascension
02h 48m 49s
True Declination
55° 07' 59"
Sunlit
Object was in full shadow at epoch
Visualization orbit readout
Latitude
Unknown
Longitude
Unknown
Altitude
Unknown
Speed
Unknown
Apparent Right ascension
Unknown
Apparent Declination
Unknown
Sunlit
N/A
Visualization observer readout
Local Sidereal Time
18:56:43
Azimuth
Unknown
Elevation
Unknown
Doppler factor
Unknown
Orbital elements
Apogee altitude
1,239.767 km
Perigee altitude
1,153.269 km
Semi-major axis
7,574.655 km
Eccentricity
0.00571
Inclination
102.0549°
RAAN
60.0647°
Arg. of periapsis
75.1235°
True anomaly
341.96728°
Mean anomaly
342.169°
Eccentric anomaly
342.06828°
Mean motion
3.2923 °/min
Orbital period
109.35 mins
BSTAR
0.0014887
Loading maneuver chart data...
Computing Atmospheric mass density...
Loading historical data...
Loading historical data...
Loading historical data...
Loading historical data...
Loading historical data...
Loading historical data...
Loading historical data...

Documentation

Showing up to 5 results
|